{"data":{"norad_id":58412,"epoch":"2026-05-25T03:39:55.175616Z","epoch_age_seconds":58276,"freshness":"FRESH","line1":"1 58412U 23180L   26145.15272194  .00018463  00000+0  43474-3 0  9999","line2":"2 58412  42.9995 187.1462 0008812  62.5244 297.6508 15.41587057141120","mean_motion":15.41587057,"eccentricity":0.0008812,"inclination_deg":42.9995,"raan_deg":187.1462,"arg_perigee_deg":62.5244,"mean_anomaly_deg":297.6508,"bstar":0.00043474,"rev_number":14112,"period_min":93.41022898845,"perigee_km":435.41542865803,"apogee_km":447.43422442112,"semimajor_km":6819.5618265396,"source":"CELESTRAK","updated_at":"2026-05-25T13:38:18.618693Z"}}